Home > Time Zones > World Clock > Weather > U.S.A. > Adak > Past weeks

Flag for U.S.A. Weather past 2 weeks in Adak, Alaska, U.S.A.

Now
30 °F

Sunny.


Feels Like: 30 °F
Forecast: 29 / 36 °F
Wind: No wind

Location: Adak

Current Time: Apr 19, 2015 at 9:44:43 AM

Latest Report: Apr 19, 2015 at 9:16 AM


Visibility: 10 mi

Pressure: 29.95 "Hg

Humidity: 69%

Dew point: 21 °F

Location of AdakLocation

Historic Weather in Adak — Graph

°F

Adak temperature yesterday

Maximum temperature yesterday: 37 °F (at 1:56 PM)
Minimum temperature yesterday: 30 °F (at 12:16 AM)
Average temperature yesterday: 34 °F

Past Weeks' High & Low Weather Summary

 TemperatureHumidityPressure
High46 °F (Apr 4, 2:16 PM)87% (Apr 7, 11:16 AM)30.18 "Hg (Apr 7, 11:16 AM)
Low25 °F (Apr 12, 8:56 AM)44% (Apr 11, 3:36 PM)29.13 "Hg (Apr 13, 5:36 AM)
Average35 °F69%29.77 "Hg
* Reported Apr 4 8:16 AM — Apr 19 8:36 AM, Adak, Weather by CustomWeather, © 2015

Note: Actual official high and low records may vary slightly from our data, if they occured in-between our weather recording intervals... More about our weather records

Advertising

Adak weather history for previous 24 hours

 ConditionsComfort  
Time TempWeatherWind HumidityBarometerVisibility
8:36 AM
Sun, Apr 19
28 °FPartly sunny.No wind69%29.95 "Hg10 mi
8:16 AM28 °FMore clouds than sun.No wind69%29.95 "Hg10 mi
7:56 AM28 °FOvercast.3 mph69%29.96 "Hg10 mi
7:36 AM27 °FOvercast.No wind69%29.95 "Hg10 mi
7:16 AM28 °FMostly cloudy.N/A64%29.96 "Hg10 mi
6:56 AM27 °FOvercast.6 mph69%29.95 "Hg10 mi
6:36 AM27 °FPassing clouds.6 mph69%29.96 "Hg10 mi
6:16 AM28 °FPassing clouds.No wind64%29.95 "Hg10 mi
5:56 AM28 °FOvercast.No wind64%29.96 "Hg10 mi
5:36 AM28 °FOvercast.6 mph69%29.96 "Hg10 mi
5:16 AM28 °FOvercast.5 mph69%29.96 "Hg10 mi
4:56 AM27 °FOvercast.6 mph74%29.96 "Hg10 mi
4:36 AM27 °FPassing clouds.5 mph69%29.96 "Hg10 mi
4:16 AM27 °FPassing clouds.3 mph74%29.96 "Hg10 mi
3:56 AM28 °FPassing clouds.No wind69%29.95 "Hg10 mi
3:36 AM27 °FPassing clouds.No wind69%29.95 "Hg10 mi
3:16 AM25 °FPassing clouds.3 mph69%29.95 "Hg10 mi
2:56 AM28 °FPassing clouds.6 mph64%29.95 "Hg10 mi
2:36 AM28 °FPassing clouds.3 mph69%29.95 "Hg10 mi
2:16 AM30 °FPassing clouds.No wind64%29.94 "Hg10 mi
1:56 AM32 °FOvercast.6 mph60%29.94 "Hg10 mi
1:36 AM34 °FOvercast.6 mph56%29.93 "Hg10 mi
1:16 AM34 °FOvercast.6 mph56%29.93 "Hg10 mi
12:56 AM34 °FOvercast.8 mph60%29.93 "Hg10 mi
12:36 AM34 °FMostly cloudy.9 mph56%29.93 "Hg9 mi
12:16 AM34 °FOvercast.6 mph56%29.92 "Hg10 mi
11:56 PM
Sat, Apr 18
34 °FOvercast.7 mph56%29.92 "Hg10 mi
11:36 PM34 °FOvercast.8 mph60%29.91 "Hg10 mi
11:16 PM34 °FOvercast.12 mph60%29.91 "Hg10 mi
10:56 PM34 °FOvercast.8 mph60%29.90 "Hg10 mi
10:36 PM34 °FMostly cloudy.10 mph60%29.89 "Hg10 mi
10:16 PM34 °FMostly cloudy.15 mph56%29.88 "Hg10 mi
9:56 PM34 °FMostly cloudy.9 mph60%29.88 "Hg10 mi
9:36 PM34 °FOvercast.17 mph51%29.86 "Hg10 mi
9:16 PM34 °FOvercast.13 mph56%29.86 "Hg10 mi
8:56 PM34 °FPartly sunny.14 mph56%29.85 "Hg10 mi
8:36 PM34 °FPartly sunny.13 mph56%29.85 "Hg10 mi
8:16 PM34 °FPartly sunny.12 mph60%29.84 "Hg10 mi
7:56 PM36 °FPartly sunny.18 mph56%29.84 "Hg10 mi
7:36 PM36 °FPartly sunny.21 mph52%29.84 "Hg10 mi
7:16 PM36 °FMostly cloudy.14 mph56%29.83 "Hg10 mi
6:56 PM36 °FBroken clouds.18 mph52%29.83 "Hg10 mi
6:36 PM36 °FPartly sunny.14 mph52%29.83 "Hg10 mi
6:16 PM36 °FCloudy.17 mph52%29.82 "Hg10 mi
5:56 PM36 °FMostly cloudy.16 mph52%29.82 "Hg10 mi
5:36 PM37 °FPartly sunny.18 mph48%29.81 "Hg10 mi
5:16 PM36 °FMore clouds than sun.17 mph56%29.81 "Hg10 mi
4:56 PM37 °FBroken clouds.17 mph52%29.80 "Hg10 mi
4:36 PM36 °FBroken clouds.20 mph52%29.80 "Hg10 mi
3:56 PM36 °FPartly sunny.17 mph56%29.80 "Hg10 mi
3:36 PM37 °FPartly sunny.21 mph48%29.79 "Hg10 mi
3:16 PM37 °FCloudy.17 mph52%29.78 "Hg10 mi
2:56 PM36 °FBroken clouds.18 mph52%29.78 "Hg10 mi
2:36 PM37 °FScattered clouds.20 mph48%29.77 "Hg10 mi
2:16 PM36 °FMostly cloudy.18 mph52%29.76 "Hg10 mi
1:56 PM37 °FPartly sunny.23 mph52%29.76 "Hg10 mi
1:36 PM36 °FMostly cloudy.22 mph60%29.75 "Hg10 mi
1:16 PM36 °FBroken clouds.18 mph56%29.75 "Hg10 mi
12:56 PM36 °FMostly cloudy.22 mph56%29.75 "Hg10 mi
12:36 PM34 °FBroken clouds.20 mph56%29.75 "Hg9 mi
12:16 PM34 °FMostly cloudy.21 mph56%29.74 "Hg10 mi
11:56 AM34 °FMore clouds than sun.21 mph56%29.73 "Hg10 mi
11:36 AM32 °FMostly cloudy.17 mph64%29.73 "Hg5 mi
11:16 AM34 °FOvercast.18 mph56%29.72 "Hg10 mi
10:56 AM32 °FMore clouds than sun.18 mph64%29.72 "Hg8 mi
10:36 AM34 °FOvercast.17 mph51%29.71 "Hg10 mi
10:16 AM34 °FOvercast.20 mph48%29.71 "Hg10 mi
9:56 AM32 °FMore clouds than sun.14 mph60%29.70 "Hg10 mi
9:36 AM32 °FMostly cloudy.18 mph55%29.70 "Hg10 mi
9:16 AM32 °FOvercast.16 mph60%29.69 "Hg10 mi
Weather by CustomWeather, © 2015

See weather overviewHow to use our weather pages